Weather History for Worland, WY

Change the Weather History Date:

Monday, January 28, 2013

  Actual Average Record
Temperature  
Mean Temperature -9 °C -8 °C  
Max Temperature -1 °C 0 °C 12 °C (1971)
Min Temperature -18 °C -15 °C -33 °C (1980)
Degree Days  
Heating Degree Days 50 47  
Month to date heating degree days 1431 1347  
Since 1 July heating degree days 4173 4710  
Cooling Degree Days 0 0  
Month to date cooling degree days 0 0  
Year to date cooling degree days 0 0  
Moisture  
Dew Point -7 °C    
Average Humidity 82    
Maximum Humidity 100    
Minimum Humidity 63    
Precipitation  
Precipitation 0.25 mm 0.25 mm 0.25 mm (1963)
Month to date precipitation 0.10 0.21  
Year to date precipitation 0.10 0.21  
Sea Level Pressure  
Sea Level Pressure 1010 hPa    
Wind  
Wind Speed 7 km/h (SW)    
Max Wind Speed 16 km/h    
Max Gust Speed 19 km/h    
Visibility 10 kilometers    
Events Fog , Snow    
T = Trace of Precipitation, MM = Missing Value Source: NWS Daily Summary

Daily Weather History Graph

Daily Weather History Graph

Search for Another Location

Airport:

Trip Planner

Search our weather history database for the weather conditions in past years. The results will help you decide how hot, cold, wet, or windy it might be!

Date:

Astronomy

Jan. 28, 2013 Rise Set
Actual Time 7:32 AM MST 5:17 PM MST
Civil Twilight 7:02 AM MST 5:48 PM MST
Nautical Twilight 6:27 AM MST 6:22 PM MST
Astronomical Twilight 5:53 AM MST 6:56 PM MST
Moon 7:21 PM MST (1/28) 7:55 AM MST (1/28)
Length of Visible Light 10h 46m
Length of Day
9h 44m
Full, 97% of the Moon is Illuminated
Jan 28
Full
Feb 3
Last Quarter
Feb 10
New
Feb 17
First Quarter
Feb 25
Full

Hourly Weather History & Observations

Time (MST) Temp. Windchill Dew Point Humidity Pressure Visibility Wind Dir Wind Speed Gust Speed Precip Events Conditions
12:07 AM -2.0 °C -5.5 °C -3.0 °C 93% 1007.7 hPa 14.5 km WSW 9.3 km/h / 2.6 m/s - 0.0 mm   Overcast
12:19 AM -3.0 °C -6.0 °C -3.0 °C 100% 1007.3 hPa 14.5 km WSW 7.4 km/h / 2.1 m/s - 0.0 mm Snow Light Snow
12:53 AM -2.8 °C -6.4 °C -3.9 °C 92% 1010.4 hPa 11.3 km SW 9.3 km/h / 2.6 m/s - 0.0 mm Snow Light Snow
1:36 AM -3.0 °C -8.0 °C -4.0 °C 93% 1007.7 hPa 16.1 km WSW 14.8 km/h / 4.1 m/s - 0.0 mm   Overcast
1:53 AM -2.8 °C -7.4 °C -4.4 °C 89% 1010.0 hPa 6.4 km West 13.0 km/h / 3.6 m/s - 0.0 mm Snow Light Snow
2:53 AM -3.3 °C -7.5 °C -4.4 °C 92% 1010.7 hPa 4.8 km WSW 11.1 km/h / 3.1 m/s - 0.0 mm Snow Light Snow
3:06 AM -3.0 °C -7.6 °C -4.0 °C 93% 1008.4 hPa 4.0 km WSW 13.0 km/h / 3.6 m/s - 0.0 mm Snow Light Snow
3:53 AM -3.3 °C -7.5 °C -4.4 °C 92% 1010.9 hPa 3.2 km WSW 11.1 km/h / 3.1 m/s - 0.0 mm Snow Light Snow
4:15 AM -3.0 °C -6.7 °C -4.0 °C 93% 1008.0 hPa 2.8 km WSW 9.3 km/h / 2.6 m/s - 0.3 mm Snow Light Snow
4:22 AM -3.0 °C -7.2 °C -4.0 °C 93% 1008.0 hPa 3.2 km WSW 11.1 km/h / 3.1 m/s - 0.3 mm Snow Light Snow
4:53 AM -3.9 °C -7.7 °C -4.4 °C 96% 1011.1 hPa 3.2 km SW 9.3 km/h / 2.6 m/s - 0.3 mm Snow Light Snow
5:29 AM -4.0 °C -9.3 °C -4.0 °C 100% 1008.0 hPa 2.8 km WSW 14.8 km/h / 4.1 m/s - 0.0 mm Snow Light Snow
5:42 AM -4.0 °C -9.3 °C -4.0 °C 100% 1008.4 hPa 3.2 km WSW 14.8 km/h / 4.1 m/s - 0.0 mm Snow Light Snow
5:53 AM -3.9 °C -8.3 °C -4.4 °C 96% 1011.5 hPa 2.8 km WSW 11.1 km/h / 3.1 m/s - 0.0 mm Snow Light Snow
5:59 AM -4.0 °C -8.4 °C -4.0 °C 100% 1008.4 hPa 3.2 km WSW 11.1 km/h / 3.1 m/s - 0.0 mm Snow Light Snow
6:19 AM -3.0 °C -7.2 °C -5.0 °C 86% 1008.4 hPa 4.8 km WSW 11.1 km/h / 3.1 m/s - 0.0 mm Snow Light Snow
6:35 AM -4.0 °C -8.4 °C -5.0 °C 93% 1008.4 hPa 4.8 km SW 11.1 km/h / 3.1 m/s - 0.0 mm Snow Light Snow
6:53 AM -3.9 °C -9.2 °C -5.0 °C 92% 1012.2 hPa 8.0 km SW 14.8 km/h / 4.1 m/s - 0.0 mm Snow Light Snow
7:48 AM -4.0 °C -8.4 °C -5.0 °C 93% 1008.7 hPa 16.1 km SW 11.1 km/h / 3.1 m/s - 0.0 mm   Overcast
7:53 AM -4.4 °C -9.3 °C -5.0 °C 96% 1012.4 hPa 16.1 km SW 13.0 km/h / 3.6 m/s - 0.0 mm   Overcast
8:23 AM -4.0 °C -8.4 °C -6.0 °C 86% 1008.7 hPa 16.1 km SW 11.1 km/h / 3.1 m/s - N/A   Overcast
8:53 AM -3.9 °C -8.3 °C -5.6 °C 88% 1012.4 hPa 14.5 km WSW 11.1 km/h / 3.1 m/s - 0.0 mm Snow Light Snow
9:25 AM -4.0 °C -7.2 °C -6.0 °C 86% 1008.7 hPa 14.5 km WSW 7.4 km/h / 2.1 m/s - 0.0 mm   Overcast
9:53 AM -4.4 °C -9.3 °C -6.1 °C 88% 1012.9 hPa 16.1 km SW 13.0 km/h / 3.6 m/s - 0.0 mm   Overcast
10:53 AM -3.3 °C -7.5 °C -5.6 °C 84% 1012.8 hPa 16.1 km SW 11.1 km/h / 3.1 m/s - N/A   Overcast
11:53 AM -2.8 °C -6.4 °C -5.6 °C 81% 1012.2 hPa 16.1 km SSW 9.3 km/h / 2.6 m/s - N/A   Overcast
12:53 PM -2.2 °C -5.1 °C -5.0 °C 81% 1011.7 hPa 16.1 km SSW 7.4 km/h / 2.1 m/s - N/A   Overcast
1:53 PM -0.6 °C -2.5 °C -6.7 °C 64% 1010.6 hPa 16.1 km NNW 5.6 km/h / 1.5 m/s - N/A   Overcast
2:53 PM -1.1 °C - -6.7 °C 66% 1011.1 hPa 16.1 km Calm Calm - N/A   Overcast
3:53 PM -2.2 °C - -7.2 °C 69% 1011.4 hPa 16.1 km Calm Calm - N/A   Overcast
4:53 PM -4.4 °C -7.7 °C -7.2 °C 81% 1011.9 hPa 16.1 km South 7.4 km/h / 2.1 m/s - N/A   Overcast
5:53 PM -6.1 °C - -8.9 °C 81% 1012.4 hPa 16.1 km Calm Calm - N/A   Overcast
6:53 PM -7.2 °C - -8.9 °C 88% 1013.0 hPa 16.1 km Calm Calm - N/A   Partly Cloudy
7:53 PM -9.4 °C -15.4 °C -10.6 °C 91% 1013.0 hPa 16.1 km South 13.0 km/h / 3.6 m/s - N/A   Clear
8:53 PM -10.0 °C -14.2 °C -11.1 °C 92% 1012.7 hPa 16.1 km SSE 7.4 km/h / 2.1 m/s - N/A   Clear
9:53 PM -13.3 °C -18.0 °C -14.4 °C 92% 1013.5 hPa 16.1 km SE 7.4 km/h / 2.1 m/s - N/A   Scattered Clouds
10:53 PM -15.0 °C - -16.7 °C 87% 1013.5 hPa 6.4 km Calm Calm - N/A   Partly Cloudy
11:06 PM -15.0 °C - -17.0 °C 85% 1007.7 hPa 4.0 km Calm Calm - N/A   Mostly Cloudy
11:11 PM -15.0 °C - -16.0 °C 92% 1007.7 hPa 1.2 km Calm Calm - N/A   Mist
11:23 PM -15.0 °C - -16.0 °C 92% 1007.7 hPa 0.4 km Calm Calm - N/A Fog Light Freezing Fog
11:53 PM -17.8 °C - -18.9 °C 91% 1013.9 hPa 0.4 km Calm Calm - N/A Fog Light Freezing Fog